Location: Hewlett
(40.6432°N, 73.6957°W)
Time: 08:38:22
(UTC+00:00)

Daily predictions for brighter satellites

Satellite Brightness Start Highest point End
(mag) Time Altitude Azimuth Time Altitude Azimuth Time Altitude Azimuth
COSMOS 2455 3.4 23:18:35 10° NNW 23:24:17 41° NE 23:29:55 10° ESE
Cosmos 2333 Rocket 3.3 23:22:13 10° N 23:26:54 25° NE 23:31:35 10° ESE
Cosmos 2184 Rocket 4.4 23:23:17 10° N 23:29:12 44° ENE 23:35:09 10° SSE
H-2A R/B 3.7 23:29:10 10° E 23:31:28 13° ENE 23:33:48 10° NNE
Genesis I 3.2 23:27:31 10° NNW 23:31:28 87° ENE 23:35:18 10° SSE
Cosmos 1939 Rocket 3.0 23:32:27 10° SSE 23:36:10 47° ENE 23:39:53 10° N
Envisat 4.1 23:32:36 10° S 23:37:30 49° W 23:42:26 10° NNW
Cosmos 2251 Rocket 3.9 23:32:32 10° N 23:37:44 47° ENE 23:42:52 10° SE
Cosmos 2237 Rocket 4.0 23:38:12 10° NNE 23:41:11 14° NE 23:44:09 10° ENE
GEOS 3 Rocket 3.7 23:37:12 10° SE 23:42:13 61° NE 23:47:17 10° NNW
Cosmos 1536 Rocket 3.7 23:38:39 10° N 23:42:54 53° E 23:47:07 10° SSE
Cosmos 1707 4.5 23:41:35 10° NE 23:43:57 15° ENE 23:45:45 12° ESE
YAOGAN 6 3.9 23:41:36 10° S 23:45:04 45° W 23:48:38 10° NNW
YAOGAN 1 3.4 23:42:14 10° S 23:46:27 55° W 23:50:43 10° NNW
Cosmos 1025 Rocket 3.1 23:44:42 10° N 23:48:52 51° E 23:53:01 10° SSE
CSL-04 Rocket 4.5 23:43:59 10° S 23:49:21 58° W 23:54:49 10° NNW
Cosmos 1378 3.0 23:47:39 10° N 23:51:25 73° E 23:55:09 10° SSE
ADEOS Rocket 4.3 23:46:51 10° NE 23:53:01 28° E 23:59:23 10° SSE
Aureole 1 Rocket 3.7 23:48:20 10° N 23:53:25 42° ENE 23:57:00 12° SE
CZ-2C R/B 4.1 23:50:59 10° NNE 23:55:09 38° E 23:59:16 10° SSE
